• Join FlightAware (Why Join?)
  • Login
  • US Flag GB Flag 
22:41 EDT


 

Airport Tracker/Info


-or-


 

Live Flight TrackerFlight Track Log ✈ SWA157 ✈ 21-Apr-2013 ✈ KBUF - KMDW

Flight Track Log - Related Links

Times and Time Zones

All times are in EDT time to prevent confusion due to time zone crossing. See the SWA157 flight status page for this flight to view local times or setup timezone preferences in your user account.

Time Position Orientation Groundspeed Altitude Reporting Facility
EDT Latitude Longitude Course Direction KTS MPH feet Rate Location/Type
07:26 42.9333 -78.7500 216° Southwest 174 200 2,100  Level Buffalo TRACON
07:27 42.9167 -78.7667 216° Southwest 173 199 2,800 2,400 Climbing Buffalo TRACON
07:28 42.8283 -78.8222 205° Southwest 250 288 6,800 2,940 Climbing Cleveland Center
07:29 42.7475 -78.8558 197° South 277 319 10,300 2,640 Climbing Cleveland Center
07:30 42.6564 -78.9006 200° South 299 344 12,100 2,460 Climbing Cleveland Center
07:31 42.5569 -78.9483 199° South 343 395 15,300 2,820 Climbing Cleveland Center
07:32 42.4722 -78.9872 199° South 379 436 17,800 2,280 Climbing Cleveland Center
07:33 42.3583 -79.0433 200° South 400 460 19,900 2,640 Climbing Cleveland Center
07:34 42.2381 -79.0997 199° South 410 472 23,100 2,640 Climbing Cleveland Center
07:35 42.1686 -79.2019 228° Southwest 385 443 25,200 2,220 Climbing Cleveland Center
07:36 42.1344 -79.3317 250° West 365 420 27,600 2,820 Climbing Cleveland Center
07:37 42.1025 -79.4525 250° West 355 409 30,900 2,280 Climbing Cleveland Center
07:38 42.0703 -79.5706 250° West 349 402 32,200 1,260 Climbing Cleveland Center
07:39 42.0419 -79.6886 252° West 344 396 33,500 1,140 Climbing Cleveland Center
07:40 42.0117 -79.8092 251° West 344 396 34,500 960 Climbing Cleveland Center
07:41 41.9769 -79.9325 249° West 352 405 35,500 720 Climbing Cleveland Center
07:42 41.9442 -80.0556 250° West 352 405 36,000 240 Climbing Cleveland Center
07:43 41.9114 -80.1814 251° West 352 405 36,000  Level Cleveland Center
07:44 41.8764 -80.3069 250° West 352 405 36,000  Level Cleveland Center
07:45 41.8453 -80.4186 250° West 352 405 36,000  Level Cleveland Center
07:46 41.8100 -80.5442 249° West 358 412 36,000  Level Cleveland Center
07:47 41.7786 -80.6722 252° West 363 418 36,000  Level Cleveland Center
07:48 41.7431 -80.7947 249° West 368 423 36,000  Level Cleveland Center
07:49 41.7094 -80.9197 250° West 368 423 36,000  Level Cleveland Center
07:50 41.6756 -81.0447 250° West 362 417 36,000  Level Cleveland Center
07:51 41.6417 -81.1667 250° West 362 417 36,000  Level Cleveland Center
07:52 41.6011 -81.3022 248° West 362 417 36,000  Level Cleveland Center
07:53 41.5650 -81.4350 250° West 369 425 36,000  Level Cleveland Center
07:54 41.5283 -81.5650 249° West 379 436 36,000  Level Cleveland Center
07:55 41.5022 -81.7033 256° West 384 442 36,000  Level Cleveland Center
07:56 41.5028 -81.8475 270° West 389 448 36,000  Level Cleveland Center
07:57 41.5031 -81.9917 270° West 389 448 36,000  Level Cleveland Center
07:58 41.5033 -82.1386 270° West 389 448 36,000  Level Cleveland Center
07:59 41.5033 -82.2800 270° West 389 448 36,000  Level Cleveland Center
08:00 41.5031 -82.4297 270° West 389 448 36,000  Level Cleveland Center
08:01 41.5028 -82.5739 270° West 389 448 36,000  Level Cleveland Center
08:02 41.5022 -82.7208 270° West 395 455 36,000  Level Cleveland Center
08:03 41.5014 -82.8650 270° West 395 455 36,000  Level Cleveland Center
08:04 41.5006 -83.0119 270° West 395 455 36,000  Level Cleveland Center
08:05 41.4994 -83.1561 269° West 395 455 36,000  Level Cleveland Center
08:06 41.4983 -83.3003 269° West 395 455 36,000  Level Cleveland Center
08:07 41.4947 -83.4469 268° West 400 460 36,000  Level Cleveland Center
08:08 41.4953 -83.5883 270° West 400 460 36,000  Level Cleveland Center
08:09 41.4933 -83.7353 269° West 400 460 36,000  Level Cleveland Center
08:11 41.4944 -83.9783 270° West 389 448 36,000  Level Chicago Center
08:12 41.4917 -84.1197 269° West 385 443 36,000  Level Chicago Center
08:13 41.4875 -84.2644 268° West 389 448 36,000 -1,500 Level Chicago Center
08:15 41.4769 -84.4550 266° West  Level FlightAware Approximate
08:16 41.4833 -84.7219 266° West 387 445 30,000  Level Chicago Center
08:17 41.4892 -84.8669 273° West 391 450 30,000  Level Chicago Center
08:18 41.4939 -85.0119 273° West 393 452 30,000  Level Chicago Center
08:19 41.4986 -85.1592 273° West 395 455 30,000 -840 Level Chicago Center
08:20 41.5039 -85.3053 273° West 391 450 28,300 -1,920 Descending Chicago Center
08:21 41.5069 -85.4469 272° West 376 433 26,100 -2,220 Descending Chicago Center
08:22 41.5119 -85.5814 273° West 359 413 23,900 -2,220 Descending Chicago Center
08:23 41.5161 -85.7158 272° West 359 413 21,600 -2,160 Descending Chicago Center
08:24 41.5194 -85.8567 272° West 376 433 19,600 -1,740 Descending Chicago Center
08:25 41.5239 -85.9903 273° West 364 419 18,100 -2,160 Descending Chicago Center
08:26 41.5242 -86.1250 270° West 365 420 15,200 -2,460 Descending Chicago Center
08:27 41.5236 -86.2531 270° West 351 404 13,200 -1,980 Descending Chicago Center
08:28 41.5228 -86.3739 270° West 330 380 11,200 -1,140 Descending Chicago Center
08:29 41.5225 -86.5144 270° West 318 366 11,000 -300 Descending Chicago Center
08:30 41.5208 -86.6292 269° West 313 360 10,700 -480 Descending Chicago Center
08:31 41.5197 -86.7419 269° West 303 349 10,100 -360 Descending Chicago Center
08:32 41.5189 -86.8533 269° West 302 348 10,000 -600 Descending Chicago Center
08:33 41.5181 -86.9467 269° West 264 304 8,900 -1,320 Descending Chicago Center
08:34 41.5169 -87.0411 269° West 256 295 7,400 -1,500 Descending Chicago Center
08:35 41.5178 -87.1383 271° West 259 298 5,900 -1,200 Descending Chicago Center
08:36 41.5167 -87.2167 269° West 268 308 5,400 -900 Descending Chicago TRACON
08:37 41.5333 -87.3167 283° West 265 305 4,400 -720 Descending Chicago TRACON
08:38 41.5500 -87.4167 283° West 262 302 4,000 -420 Descending Chicago TRACON
08:39 41.5497 -87.4475 269° West 264 304 3,900  Descending Chicago Center
08:40 41.5611 -87.5431 279° West 263 303 4,000  Climbing Chicago Center
08:41 41.5719 -87.6400 279° West 264 304 4,000  Level Chicago Center
08:42 41.6000 -87.8000 283° West 279 321 4,100 -120 Climbing Chicago TRACON
08:43 41.6092 -87.8203 301° West 264 304 3,800 -600 Descending Chicago Center
08:43 41.6500 -87.8500 331° Northwest 237 273 3,500 -900 Descending Chicago TRACON
08:44 41.7000 -87.9000 323° Northwest 229 264 2,500 -780 Descending Chicago TRACON
08:45 41.7167 -87.9111 334° Northwest 235 270 2,400 -120 Descending Chicago Center
08:46 41.7803 -87.9056 North 201 231 2,400 -300 Level Chicago Center
08:47 41.8167 -87.8761 31° Northeast 174 200 1,900 -300 Descending Chicago Center
08:47 41.8167 -87.8500 90° East 137 158 2,000 -240 Climbing Chicago TRACON
08:48 41.8167 -87.8167 90° East 124 143 1,600 -600 Descending Chicago TRACON
08:49 41.8000 -87.7667 114° Southeast 130 150 900 -720 Descending Chicago TRACON